Location: *
(48.8489°N, 2.3218°E)
Time: 07:38:26
(UTC+00:00)

Mayak - Pass Details

Date: 23 August 2019
Orbit: 581 x 603 km, 97.6° (Epoch: 20 September)

Event Time Altitude Azimuth Distance (km) Brightness Sun altitude
Rises 22:45:59 0° 11° (NNE) 2,841 3.1 -28.1°
Reaches altitude 10° 22:48:10 10° 10° (N) 1,931 2.1 -28.2°
Enters shadow 22:51:02 42° 2° (N) 844 -0.1 -28.3°
